Location: Camaret
(48.2753°N, 4.5961°W)
Time: 03:09:25
(UTC+00:00)

H-2A R/B - Pass Details

Date: 29 October 2020
Orbit: 500 x 540 km, 97.3° (Epoch: 28 November)

Event Time Altitude Azimuth Distance (km) Brightness Sun altitude
Rises 17:32:18 0° 184° (S) 2,580 6.5 -5.4°
Reaches altitude 10° 17:34:27 10° 192° (SSW) 1,702 5.7 -5.7°
Maximum altitude 17:37:54 39° 262° (W) 768 4.4 -6.3°
Drops below altitude 10° 17:41:24 10° 333° (NNW) 1,725 5.5 -6.9°
Sets 17:43:37 0° 341° (NNW) 2,620 6.4 -7.2°
